,,Stat6,,Stat2,,Stat8,,Stat9,,Stat10,,Wind1,,Wind1,
time,status,PA1M_AVG,status,PR1M_SUM,status,RH1M_AVG,status,SR1M_AVG,status,TA1M_AVG,status,W1dAve1m,status,W1sAve1m,
2007-08-09, 00:00:01,VALID,917.397,VALID,0,VALID,100,VALID,-0.0339617,VALID,20.042,VALID,6,VALID,0.918826,
2007-08-09, 00:01:01,VALID,917.394,VALID,0,VALID,100,VALID,-0.0169808,VALID,20.003,VALID,14,VALID,0.773849,
2007-08-09, 00:02:01,VALID,917.39,VALID,0,VALID,100,VALID,-0.0339617,VALID,20.006,VALID,28,VALID,0.585938,
2007-08-09, 00:03:01,VALID,917.388,VALID,0,VALID,100,VALID,-0.0169808,VALID,20.0163,VALID,32,VALID,0.377725,
2007-08-09, 00:04:00,VALID,917.379,VALID,0,VALID,100,VALID,-0.0509425,VALID,20.0028,VALID,30,VALID,0.330611,
2007-08-09, 00:05:00,VALID,917.383,VALID,0,VALID,100,VALID,-0.0509425,VALID,19.9808,VALID,30,VALID,0.282986,
2007-08-09, 00:06:00,VALID,917.381,VALID,0,VALID,100,VALID,-0.0339617,VALID,19.9741,VALID,30,VALID,0.00685976,
2007-08-09, 00:07:00,VALID,917.383,VALID,0,VALID,100,VALID,-0.0339617,VALID,19.9736,VALID,30,VALID,0.187678,
2007-08-09, 00:08:00,VALID,917.378,VALID,0,VALID,100,VALID,-0.0509425,VALID,19.9903,VALID,30,VALID,0.0277344,
2007-08-09, 00:09:00,VALID,917.375,VALID,0,VALID,100,VALID,-0.0339617,VALID,19.9901,VALID,30,VALID,0.21218,
2007-08-09, 00:10:00,VALID,917.357,VALID,0,VALID,100,VALID,-0.0849042,VALID,19.9866,VALID,30,VALID,0.327744,
2007-08-09, 00:11:00,VALID,917.34,VALID,0,VALID,100,VALID,-0.0339617,VALID,20.0093,VALID,30,VALID,0.301639,
2007-08-09, 00:12:00,VALID,917.336,VALID,0,VALID,100,VALID,-0.0339617,VALID,20.0392,VALID,30,VALID,0.35,
2007-08-09, 00:13:00,VALID,917.332,VALID,0,VALID,100,VALID,-0.0339617,VALID,20.0647,VALID,30,VALID,0.272892,
2007-08-09, 00:14:00,VALID,917.335,VALID,0,VALID,100,VALID,-0.0679233,VALID,20.0552,VALID,30,VALID,0.330333,
2007-08-09, 00:15:00,VALID,917.326,VALID,0,VALID,100,VALID,0.0679233,VALID,20.038,VALID,30,VALID,0.267299,
2007-08-09, 00:16:00,VALID,917.327,VALID,0,VALID,100,VALID,0.0509425,VALID,20.0407,VALID,30,VALID,0.0130208,
2007-08-09, 00:17:00,VALID,917.305,VALID,0,VALID,100,VALID,0.0679233,VALID,20.0837,VALID,30,VALID,0.00223214,
2007-08-09, 00:18:00,VALID,917.282,VALID,0,VALID,100,VALID,0.101885,VALID,20.0956,VALID,30,VALID,0.341694,
2007-08-09, 00:19:00,VALID,917.255,VALID,0,VALID,100,VALID,0.0849042,VALID,20.0924,VALID,30,VALID,0.63548,
2007-08-09, 00:20:00,VALID,917.229,VALID,0,VALID,100,VALID,0.0679233,VALID,20.0891,VALID,30,VALID,0.485709,
2007-08-09, 00:21:00,VALID,917.203,VALID,0,VALID,100,VALID,0.0509425,VALID,20.0896,VALID,30,VALID,0.558239,
2007-08-09, 00:22:00,VALID,917.177,VALID,0,VALID,100,VALID,0.0679233,VALID,20.0697,VALID,30,VALID,0.932173,
2007-08-09, 00:23:00,VALID,917.15,VALID,0,VALID,100,VALID,0.0849042,VALID,20.0305,VALID,28,VALID,1.10417,
2007-08-09, 00:24:00,VALID,917.139,VALID,0,VALID,100,VALID,0.0679233,VALID,19.9658,VALID,26,VALID,0.933854,
2007-08-09, 00:25:00,VALID,917.136,VALID,0,VALID,100,VALID,0.0339617,VALID,19.8975,VALID,27,VALID,0.622582,
2007-08-09, 00:26:00,VALID,917.159,VALID,0,VALID,100,VALID,0.0509425,VALID,19.8555,VALID,27,VALID,0.0939503,
2007-08-09, 00:27:00,VALID,917.168,VALID,0,VALID,100,VALID,0.0509425,VALID,19.8428,VALID,27,VALID,0,
2007-08-09, 00:28:00,VALID,917.175,VALID,0,VALID,100,VALID,0.0679233,VALID,19.8401,VALID,27,VALID,0.153392,
2007-08-09, 00:29:00,VALID,917.171,VALID,0,VALID,100,VALID,0.0679233,VALID,19.8298,VALID,27,VALID,0.397372,
2007-08-09, 00:30:00,VALID,917.156,VALID,0,VALID,100,VALID,-0.0169808,VALID,19.8248,VALID,27,VALID,0.581395,
2007-08-09, 00:31:00,VALID,917.146,VALID,0,VALID,100,VALID,-0.0339617,VALID,19.8184,VALID,27,VALID,0.896621,
2007-08-09, 00:32:00,VALID,917.153,VALID,0,VALID,100,VALID,-0.0679233,VALID,19.7954,VALID,27,VALID,0.936111,
2007-08-09, 00:33:00,VALID,917.138,VALID,0,VALID,100,VALID,-0.0509425,VALID,19.7961,VALID,27,VALID,0.905878,
2007-08-09, 00:34:00,VALID,917.116,VALID,0,VALID,100,VALID,-0.0339617,VALID,19.7994,VALID,34,VALID,1.02198,
2007-08-09, 00:35:00,VALID,917.096,VALID,0,VALID,100,VALID,-0.0509425,VALID,19.7824,VALID,40,VALID,0.946181,
2007-08-09, 00:36:00,VALID,917.104,VALID,0,VALID,100,VALID,-0.0509425,VALID,19.8021,VALID,48,VALID,0.592478,
2007-08-09, 00:37:00,VALID,917.11,VALID,0,VALID,100,VALID,-0.0169808,VALID,19.7984,VALID,46,VALID,0.418064,
2007-08-09, 00:38:00,VALID,917.095,VALID,0,VALID,100,VALID,-0.0339617,VALID,19.7887,VALID,46,VALID,0.260352,
2007-08-09, 00:39:00,VALID,917.079,VALID,0,VALID,100,VALID,-0.0679233,VALID,19.7857,VALID,46,VALID,0.346294,
2007-08-09, 00:40:00,VALID,917.056,VALID,0,VALID,100,VALID,-0.0679233,VALID,19.7897,VALID,46,VALID,0.243185,
2007-08-09, 00:41:00,VALID,917.034,VALID,0,VALID,100,VALID,-0.0509425,VALID,19.7921,VALID,46,VALID,0.080221,
2007-08-09, 00:42:00,VALID,917.01,VALID,0,VALID,100,VALID,-0.0339617,VALID,19.7989,VALID,46,VALID,0.319957,
2007-08-09, 00:43:00,VALID,917.008,VALID,0,VALID,100,VALID,-0.0849042,VALID,19.7924,VALID,46,VALID,0.435724,
2007-08-09, 00:44:00,VALID,916.981,VALID,0,VALID,100,VALID,-0.0169808,VALID,19.7889,VALID,46,VALID,0.471294,
2007-08-09, 00:45:00,VALID,916.971,VALID,0,VALID,100,VALID,-0.0339617,VALID,19.7759,VALID,40,VALID,0.667411,
2007-08-09, 00:46:00,VALID,916.941,VALID,0,VALID,100,VALID,-0.0679233,VALID,19.7662,VALID,33,VALID,1.03277,
2007-08-09, 00:47:00,VALID,916.915,VALID,0,VALID,100,VALID,-0.0509425,VALID,19.737,VALID,37,VALID,1.33457,
2007-08-09, 00:48:00,VALID,916.908,VALID,0,VALID,100,VALID,-0.0339617,VALID,19.721,VALID,33,VALID,1.27257,
2007-08-09, 00:49:00,VALID,916.877,VALID,0,VALID,100,VALID,0,VALID,19.6818,VALID,26,VALID,1.07515,
2007-08-09, 00:50:00,VALID,916.864,VALID,0,VALID,100,VALID,-0.0679233,VALID,19.6634,VALID,28,VALID,1.36435,
2007-08-09, 00:51:00,VALID,916.861,VALID,0,VALID,100,VALID,-0.101885,VALID,19.6199,VALID,19,VALID,1.18306,
2007-08-09, 00:52:00,VALID,916.827,VALID,0,VALID,100,VALID,-0.0509425,VALID,19.6142,VALID,22,VALID,1.41077,
2007-08-09, 00:53:00,VALID,916.792,VALID,0,VALID,100,VALID,-0.0509425,VALID,19.5972,VALID,21,VALID,1.34635,
2007-08-09, 00:54:00,VALID,916.757,VALID,0,VALID,100,VALID,-0.0509425,VALID,19.5982,VALID,15,VALID,0.818105,
2007-08-09, 00:55:00,VALID,916.756,VALID,0,VALID,100,VALID,-0.0339617,VALID,19.5947,VALID,20,VALID,0.658381,
2007-08-09, 00:56:00,VALID,916.732,VALID,0,VALID,100,VALID,-0.0509425,VALID,19.578,VALID,19,VALID,0.429688,
2007-08-09, 00:57:00,VALID,916.71,VALID,0,VALID,100,VALID,-0.0339617,VALID,19.5975,VALID,22,VALID,0.473474,
2007-08-09, 00:58:00,VALID,916.691,VALID,0,VALID,100,VALID,-0.0339617,VALID,19.6072,VALID,345,VALID,0.638542,
2007-08-09, 00:59:00,VALID,916.697,VALID,0,VALID,100,VALID,-0.0169808,VALID,19.6047,VALID,347,VALID,0.206577,
2007-08-09, 01:00:00,VALID,916.676,VALID,0,VALID,100,VALID,0,VALID,19.594,VALID,347,VALID,0.240189,
2007-08-09, 01:01:00,VALID,916.67,VALID,0,VALID,100,VALID,0,VALID,19.5808,VALID,1,VALID,0.360677,
2007-08-09, 01:02:00,VALID,916.676,VALID,0,VALID,100,VALID,0,VALID,19.6107,VALID,311,VALID,0.60973,
2007-08-09, 01:03:00,VALID,916.696,VALID,0,VALID,100,VALID,0,VALID,19.617,VALID,306,VALID,0.427083,
2007-08-09, 01:04:00,VALID,916.678,VALID,0,VALID,100,VALID,0.0169808,VALID,19.6105,VALID,306,VALID,0.0516036,
2007-08-09, 01:05:00,VALID,916.677,VALID,0,VALID,100,VALID,0,VALID,19.6234,VALID,313,VALID,0.303943,
2007-08-09, 01:06:00,VALID,916.701,VALID,0,VALID,100,VALID,0,VALID,19.6464,VALID,345,VALID,0.856179,
2007-08-09, 01:07:00,VALID,916.713,VALID,0,VALID,100,VALID,-0.0169808,VALID,19.6399,VALID,333,VALID,0.683594,
2007-08-09, 01:08:00,VALID,916.717,VALID,0,VALID,100,VALID,0.0339617,VALID,19.6167,VALID,332,VALID,0.315848,
2007-08-09, 01:09:00,VALID,916.688,VALID,0,VALID,100,VALID,0.0509425,VALID,19.6264,VALID,332,VALID,0,
2007-08-09, 01:10:00,VALID,916.664,VALID,0,VALID,100,VALID,0.0339617,VALID,19.6229,VALID,332,VALID,0.0846657,
2007-08-09, 01:11:00,VALID,916.616,VALID,0,VALID,100,VALID,0.0169808,VALID,19.61,VALID,332,VALID,0.110305,
2007-08-09, 01:12:00,VALID,916.6,VALID,0,VALID,100,VALID,0,VALID,19.5843,VALID,327,VALID,0.314918,
2007-08-09, 01:13:00,VALID,916.594,VALID,0,VALID,100,VALID,0.0339617,VALID,19.5678,VALID,326,VALID,0.413154,
2007-08-09, 01:14:00,VALID,916.587,VALID,0,VALID,100,VALID,0.0339617,VALID,19.5513,VALID,326,VALID,0.15987,
2007-08-09, 01:15:00,VALID,916.566,VALID,0,VALID,100,VALID,-0.101885,VALID,19.5296,VALID,326,VALID,0,
2007-08-09, 01:16:00,VALID,916.577,VALID,0,VALID,100,VALID,-0.0679233,VALID,19.5271,VALID,326,VALID,0,
2007-08-09, 01:17:00,VALID,916.565,VALID,0,VALID,100,VALID,-0.0509425,VALID,19.5144,VALID,326,VALID,0,
2007-08-09, 01:18:00,VALID,916.558,VALID,0,VALID,100,VALID,-0.101885,VALID,19.4852,VALID,326,VALID,0,
2007-08-09, 01:19:00,VALID,916.542,VALID,0,VALID,100,VALID,-0.101885,VALID,19.4527,VALID,326,VALID,0,
2007-08-09, 01:20:00,VALID,916.538,VALID,0,VALID,100,VALID,-0.118866,VALID,19.4268,VALID,326,VALID,0.0550595,
2007-08-09, 01:21:00,VALID,916.524,VALID,0,VALID,100,VALID,-0.0849042,VALID,19.3586,VALID,326,VALID,0,
2007-08-09, 01:22:00,VALID,916.513,VALID,0,VALID,100,VALID,-0.0849042,VALID,19.3162,VALID,326,VALID,0.0102307,
2007-08-09, 01:23:00,VALID,916.488,VALID,0,VALID,100,VALID,-0.0679233,VALID,19.2805,VALID,326,VALID,0.154018,
2007-08-09, 01:24:00,VALID,916.477,VALID,0,VALID,100,VALID,-0.0339617,VALID,19.2449,VALID,326,VALID,0.450945,
2007-08-09, 01:25:00,VALID,916.484,VALID,0,VALID,100,VALID,-0.0849042,VALID,19.2603,VALID,326,VALID,0.360156,
2007-08-09, 01:26:00,VALID,916.473,VALID,0,VALID,100,VALID,-0.0849042,VALID,19.3132,VALID,326,VALID,0.0485491,
2007-08-09, 01:27:00,VALID,916.454,VALID,0,VALID,100,VALID,-0.0509425,VALID,19.3354,VALID,326,VALID,0,
2007-08-09, 01:28:00,VALID,916.434,VALID,0,VALID,100,VALID,-0.101885,VALID,19.329,VALID,326,VALID,0,
2007-08-09, 01:29:00,VALID,916.415,VALID,0,VALID,100,VALID,-0.101885,VALID,19.2903,VALID,326,VALID,0,
2007-08-09, 01:30:00,VALID,916.411,VALID,0,VALID,100,VALID,0,VALID,19.2826,VALID,326,VALID,0,
2007-08-09, 01:31:00,VALID,916.406,VALID,0,VALID,100,VALID,0.0339617,VALID,19.2758,VALID,326,VALID,0,
2007-08-09, 01:32:00,VALID,916.42,VALID,0,VALID,100,VALID,0.0509425,VALID,19.2626,VALID,326,VALID,0,
2007-08-09, 01:33:00,VALID,916.413,VALID,0,VALID,100,VALID,0.0339617,VALID,19.2334,VALID,326,VALID,0,
2007-08-09, 01:34:00,VALID,916.408,VALID,0,VALID,100,VALID,0.0509425,VALID,19.1975,VALID,326,VALID,0.101376,
2007-08-09, 01:35:00,VALID,916.408,VALID,0,VALID,100,VALID,0.0509425,VALID,19.1982,VALID,326,VALID,0.0998047,
2007-08-09, 01:36:00,VALID,916.396,VALID,0,VALID,100,VALID,0.0679233,VALID,19.1915,VALID,326,VALID,0,
2007-08-09, 01:37:00,VALID,916.412,VALID,0,VALID,100,VALID,0.0339617,VALID,19.1977,VALID,326,VALID,0,
2007-08-09, 01:38:00,VALID,916.412,VALID,0,VALID,100,VALID,0.0509425,VALID,19.2174,VALID,326,VALID,0,
2007-08-09, 01:39:00,VALID,916.405,VALID,0,VALID,100,VALID,0,VALID,19.1982,VALID,326,VALID,0,
2007-08-09, 01:40:00,VALID,916.388,VALID,0,VALID,100,VALID,0,VALID,19.1818,VALID,328,VALID,0.0704942,
2007-08-09, 01:41:00,VALID,916.405,VALID,0,VALID,100,VALID,0.0509425,VALID,19.1201,VALID,336,VALID,0.429324,
2007-08-09, 01:42:00,VALID,916.392,VALID,0,VALID,100,VALID,0.0509425,VALID,19.1002,VALID,336,VALID,0.472917,
2007-08-09, 01:43:00,VALID,916.387,VALID,0,VALID,100,VALID,0.0169808,VALID,19.1398,VALID,344,VALID,0.602289,
2007-08-09, 01:44:00,VALID,916.39,VALID,0,VALID,100,VALID,0.0169808,VALID,19.1912,VALID,14,VALID,0.781622,
2007-08-09, 01:45:00,VALID,916.394,VALID,0,VALID,100,VALID,-0.101885,VALID,19.2608,VALID,12,VALID,0.607515,
2007-08-09, 01:46:00,VALID,916.394,VALID,0,VALID,100,VALID,-0.0679233,VALID,19.297,VALID,12,VALID,0.558966,
2007-08-09, 01:47:00,VALID,916.391,VALID,0,VALID,100,VALID,-0.0679233,VALID,19.3195,VALID,27,VALID,0.75744,
2007-08-09, 01:48:00,VALID,916.407,VALID,0,VALID,100,VALID,-0.0509425,VALID,19.3257,VALID,15,VALID,0.895167,
2007-08-09, 01:49:00,VALID,916.426,VALID,0,VALID,100,VALID,-0.0679233,VALID,19.3384,VALID,6,VALID,0.72691,
2007-08-09, 01:50:00,VALID,916.427,VALID,0,VALID,100,VALID,-0.101885,VALID,19.3517,VALID,8,VALID,0.405895,
2007-08-09, 01:51:00,VALID,916.417,VALID,0,VALID,100,VALID,-0.0849042,VALID,19.3709,VALID,14,VALID,0.309524,
2007-08-09, 01:52:00,VALID,916.409,VALID,0,VALID,100,VALID,-0.0679233,VALID,19.3938,VALID,14,VALID,0.066907,
2007-08-09, 01:53:00,VALID,916.386,VALID,0,VALID,100,VALID,-0.0679233,VALID,19.42,VALID,14,VALID,0.218924,
2007-08-09, 01:54:00,VALID,916.396,VALID,0,VALID,100,VALID,-0.0679233,VALID,19.4293,VALID,14,VALID,0.121366,
2007-08-09, 01:55:00,VALID,916.387,VALID,0,VALID,100,VALID,-0.0679233,VALID,19.4395,VALID,14,VALID,0.115039,
2007-08-09, 01:56:00,VALID,916.392,VALID,0,VALID,100,VALID,-0.0849042,VALID,19.433,VALID,14,VALID,0.161776,
2007-08-09, 01:57:00,VALID,916.395,VALID,0,VALID,100,VALID,-0.101885,VALID,19.4101,VALID,9,VALID,0.572129,
2007-08-09, 01:58:00,VALID,916.394,VALID,0,VALID,100,VALID,-0.0339617,VALID,19.3971,VALID,3,VALID,0.709077,
2007-08-09, 01:59:00,VALID,916.38,VALID,0,VALID,100,VALID,-0.0849042,VALID,19.3978,VALID,20,VALID,1.07412,
2007-08-09, 02:00:00,VALID,916.373,VALID,0,VALID,100,VALID,-0.0169808,VALID,19.3637,VALID,19,VALID,0.670703,
2007-08-09, 02:01:00,VALID,916.356,VALID,0,VALID,100,VALID,0.0169808,VALID,19.3312,VALID,316,VALID,0.501302,
2007-08-09, 02:02:00,VALID,916.349,VALID,0,VALID,100,VALID,0,VALID,19.341,VALID,307,VALID,0.101563,
2007-08-09, 02:03:00,VALID,916.326,VALID,0,VALID,100,VALID,0,VALID,19.3442,VALID,330,VALID,0.252046,
2007-08-09, 02:04:00,VALID,916.33,VALID,0,VALID,100,VALID,0.0169808,VALID,19.3375,VALID,15,VALID,0.471657,
2007-08-09, 02:05:00,VALID,916.32,VALID,0,VALID,100,VALID,0,VALID,19.2923,VALID,29,VALID,0.976362,
2007-08-09, 02:06:00,VALID,916.309,VALID,0,VALID,100,VALID,-0.0169808,VALID,19.289,VALID,3,VALID,0.984947,
2007-08-09, 02:07:00,VALID,916.29,VALID,0,VALID,100,VALID,0,VALID,19.2821,VALID,6,VALID,0.976732,
2007-08-09, 02:08:00,VALID,916.295,VALID,0,VALID,100,VALID,0,VALID,19.2691,VALID,6,VALID,1.53924,
2007-08-09, 02:09:00,VALID,916.298,VALID,0,VALID,100,VALID,0,VALID,19.2561,VALID,16,VALID,1.16354,
2007-08-09, 02:10:00,VALID,916.3,VALID,0,VALID,100,VALID,0.0169808,VALID,19.2401,VALID,14,VALID,1.14283,
2007-08-09, 02:11:00,VALID,916.296,VALID,0,VALID,100,VALID,-0.0169808,VALID,19.2144,VALID,357,VALID,0.780382,
2007-08-09, 02:12:00,VALID,916.285,VALID,0,VALID,100,VALID,0.0339617,VALID,19.211,VALID,8,VALID,1.22293,
2007-08-09, 02:13:00,VALID,916.285,VALID,0,VALID,100,VALID,0.0169808,VALID,19.2272,VALID,3,VALID,0.749814,
2007-08-09, 02:14:00,VALID,916.282,VALID,0,VALID,100,VALID,0.0169808,VALID,19.2401,VALID,14,VALID,0.631963,
2007-08-09, 02:15:00,VALID,916.286,VALID,0,VALID,100,VALID,0,VALID,19.2469,VALID,25,VALID,0.732887,
2007-08-09, 02:16:00,VALID,916.285,VALID,0,VALID,100,VALID,0,VALID,19.2466,VALID,34,VALID,0.435023,
2007-08-09, 02:17:00,VALID,916.261,VALID,0,VALID,100,VALID,0,VALID,19.2501,VALID,33,VALID,0.40263,
2007-08-09, 02:18:00,VALID,916.258,VALID,0,VALID,100,VALID,-0.0169808,VALID,19.2631,VALID,25,VALID,0.376999,
2007-08-09, 02:19:00,VALID,916.242,VALID,0,VALID,100,VALID,0,VALID,19.2761,VALID,31,VALID,0.255632,
2007-08-09, 02:20:00,VALID,916.252,VALID,0,VALID,100,VALID,-0.0339617,VALID,19.2893,VALID,9,VALID,0.640419,
2007-08-09, 02:21:00,VALID,916.274,VALID,0,VALID,100,VALID,0,VALID,19.2761,VALID,16,VALID,1.00208,
2007-08-09, 02:22:00,VALID,916.278,VALID,0,VALID,100,VALID,0,VALID,19.2793,VALID,25,VALID,0.460211,
2007-08-09, 02:23:00,VALID,916.281,VALID,0,VALID,100,VALID,-0.0169808,VALID,19.2893,VALID,23,VALID,0.029154,
2007-08-09, 02:24:00,VALID,916.244,VALID,0,VALID,100,VALID,-0.0169808,VALID,19.289,VALID,10,VALID,0.760352,
2007-08-09, 02:25:00,VALID,916.2,VALID,0,VALID,100,VALID,-0.0169808,VALID,19.2923,VALID,32,VALID,0.75109,
2007-08-09, 02:26:00,VALID,916.189,VALID,0,VALID,100,VALID,0,VALID,19.2791,VALID,30,VALID,0.665039,
2007-08-09, 02:27:00,VALID,916.168,VALID,0,VALID,100,VALID,-0.0169808,VALID,19.2696,VALID,29,VALID,0.432594,
2007-08-09, 02:28:00,VALID,916.143,VALID,0,VALID,100,VALID,0,VALID,19.2661,VALID,29,VALID,0.0914931,
2007-08-09, 02:29:00,VALID,916.132,VALID,0,VALID,100,VALID,0,VALID,19.2566,VALID,29,VALID,0.201126,
2007-08-09, 02:30:00,VALID,916.121,VALID,0,VALID,100,VALID,-0.0339617,VALID,19.2569,VALID,29,VALID,0.00234375,
2007-08-09, 02:31:00,VALID,916.128,VALID,0,VALID,100,VALID,0,VALID,19.2406,VALID,29,VALID,0,
2007-08-09, 02:32:00,VALID,916.123,VALID,0,VALID,100,VALID,-0.0339617,VALID,19.2374,VALID,29,VALID,0.0801711,
2007-08-09, 02:33:00,VALID,916.118,VALID,0,VALID,100,VALID,-0.0169808,VALID,19.2311,VALID,24,VALID,0.178472,
2007-08-09, 02:34:00,VALID,916.114,VALID,0,VALID,100,VALID,-0.0169808,VALID,19.2316,VALID,21,VALID,0.0718369,
2007-08-09, 02:35:00,VALID,916.102,VALID,0,VALID,100,VALID,0,VALID,19.2179,VALID,21,VALID,0,
2007-08-09, 02:36:00,VALID,916.09,VALID,0,VALID,100,VALID,0,VALID,19.2114,VALID,21,VALID,0,
2007-08-09, 02:37:00,VALID,916.071,VALID,0,VALID,100,VALID,-0.0339617,VALID,19.2147,VALID,21,VALID,0.287287,
2007-08-09, 02:38:00,VALID,916.078,VALID,0,VALID,100,VALID,-0.0339617,VALID,19.2212,VALID,21,VALID,0.288043,
2007-08-09, 02:39:00,VALID,916.078,VALID,0,VALID,100,VALID,-0.0509425,VALID,19.2244,VALID,21,VALID,0.00218023,
2007-08-09, 02:40:00,VALID,916.094,VALID,0,VALID,100,VALID,-0.0169808,VALID,19.2242,VALID,21,VALID,0,
2007-08-09, 02:41:00,VALID,916.082,VALID,0,VALID,100,VALID,0,VALID,19.2209,VALID,21,VALID,0.0732195,
2007-08-09, 02:42:00,VALID,916.065,VALID,0,VALID,100,VALID,0,VALID,19.2539,VALID,21,VALID,0.429129,
2007-08-09, 02:43:00,VALID,916.044,VALID,0,VALID,100,VALID,-0.0169808,VALID,19.2501,VALID,26,VALID,0.550876,
2007-08-09, 02:44:00,VALID,916.025,VALID,0,VALID,100,VALID,0,VALID,19.2696,VALID,28,VALID,0.435404,
2007-08-09, 02:45:00,VALID,916.024,VALID,0,VALID,100,VALID,0,VALID,19.2599,VALID,28,VALID,0.346058,
2007-08-09, 02:46:00,VALID,916.006,VALID,0,VALID,100,VALID,-0.0169808,VALID,19.2566,VALID,34,VALID,0.0507813,
2007-08-09, 02:47:00,VALID,915.973,VALID,0,VALID,100,VALID,0,VALID,19.2696,VALID,34,VALID,0,
2007-08-09, 02:48:00,VALID,915.955,VALID,0,VALID,100,VALID,0,VALID,19.2661,VALID,34,VALID,0,
2007-08-09, 02:49:00,VALID,915.93,VALID,0,VALID,100,VALID,0,VALID,19.2629,VALID,34,VALID,0.0249619,
2007-08-09, 02:50:00,VALID,915.927,VALID,0,VALID,100,VALID,-0.0169808,VALID,19.2696,VALID,34,VALID,0.223656,
2007-08-09, 02:51:00,VALID,915.938,VALID,0,VALID,100,VALID,-0.0339617,VALID,19.2761,VALID,34,VALID,0.198765,
2007-08-09, 02:52:00,VALID,915.932,VALID,0,VALID,100,VALID,0,VALID,19.2726,VALID,33,VALID,0.450335,
2007-08-09, 02:53:00,VALID,915.935,VALID,0,VALID,100,VALID,0,VALID,19.2566,VALID,27,VALID,0.679874,
2007-08-09, 02:54:00,VALID,915.924,VALID,0,VALID,100,VALID,-0.0169808,VALID,19.2209,VALID,360,VALID,0.718178,
2007-08-09, 02:55:00,VALID,915.913,VALID,0,VALID,100,VALID,-0.0169808,VALID,19.1977,VALID,16,VALID,1.0585,
2007-08-09, 02:56:00,VALID,915.891,VALID,0,VALID,100,VALID,-0.0169808,VALID,19.1688,VALID,21,VALID,1.13814,
2007-08-09, 02:57:00,VALID,915.906,VALID,0,VALID,100,VALID,0.0169808,VALID,19.1431,VALID,21,VALID,1.01265,
2007-08-09, 02:58:00,VALID,915.911,VALID,0,VALID,100,VALID,-0.0169808,VALID,19.1171,VALID,353,VALID,0.721475,
2007-08-09, 02:59:00,VALID,915.917,VALID,0,VALID,100,VALID,-0.0169808,VALID,19.1044,VALID,359,VALID,0.246449,
2007-08-09, 03:00:00,VALID,915.906,VALID,0,VALID,100,VALID,-0.135847,VALID,19.1024,VALID,359,VALID,0.0213914,
2007-08-09, 03:01:00,VALID,915.891,VALID,0,VALID,100,VALID,-0.101885,VALID,19.0764,VALID,359,VALID,0.0271577,
2007-08-09, 03:02:00,VALID,915.879,VALID,0,VALID,100,VALID,-0.135847,VALID,19.0634,VALID,359,VALID,0.128657,
2007-08-09, 03:03:00,VALID,915.868,VALID,0,VALID,100,VALID,-0.101885,VALID,19.0634,VALID,1,VALID,0.458274,
2007-08-09, 03:04:00,VALID,915.838,VALID,0,VALID,100,VALID,-0.118866,VALID,19.0569,VALID,5,VALID,0.446948,
2007-08-09, 03:05:00,VALID,915.819,VALID,0,VALID,100,VALID,-0.101885,VALID,19.0537,VALID,11,VALID,0.799414,
2007-08-09, 03:06:00,VALID,915.828,VALID,0,VALID,100,VALID,-0.152827,VALID,19.034,VALID,10,VALID,0.871626,
2007-08-09, 03:07:00,VALID,915.845,VALID,0,VALID,100,VALID,-0.118866,VALID,19.0277,VALID,23,VALID,0.474712,
2007-08-09, 03:08:00,VALID,915.844,VALID,0,VALID,100,VALID,-0.101885,VALID,19.0148,VALID,25,VALID,0.785714,
2007-08-09, 03:09:00,VALID,915.847,VALID,0,VALID,100,VALID,-0.118866,VALID,19.008,VALID,28,VALID,0.927401,
2007-08-09, 03:10:00,VALID,915.853,VALID,0,VALID,100,VALID,-0.118866,VALID,19.0018,VALID,35,VALID,1.10156,
2007-08-09, 03:11:00,VALID,915.855,VALID,0,VALID,100,VALID,-0.118866,VALID,18.9758,VALID,25,VALID,1.10733,
2007-08-09, 03:12:00,VALID,915.871,VALID,0,VALID,100,VALID,-0.101885,VALID,18.9921,VALID,8,VALID,0.925495,
2007-08-09, 03:13:00,VALID,915.874,VALID,0,VALID,100,VALID,-0.118866,VALID,18.9691,VALID,12,VALID,0.583097,
2007-08-09, 03:14:00,VALID,915.874,VALID,0,VALID,100,VALID,-0.135847,VALID,18.9631,VALID,11,VALID,0.239169,
2007-08-09, 03:15:00,VALID,915.861,VALID,0,VALID,100,VALID,-0.0339617,VALID,18.9554,VALID,11,VALID,0.0944602,
2007-08-09, 03:16:00,VALID,915.844,VALID,0,VALID,100,VALID,-0.0339617,VALID,18.9454,VALID,11,VALID,0,
2007-08-09, 03:17:00,VALID,915.818,VALID,0,VALID,100,VALID,0,VALID,18.9387,VALID,11,VALID,0,
2007-08-09, 03:18:00,VALID,915.824,VALID,0,VALID,100,VALID,-0.0169808,VALID,18.929,VALID,11,VALID,0.0100446,
2007-08-09, 03:19:00,VALID,915.81,VALID,0,VALID,100,VALID,-0.0339617,VALID,18.9095,VALID,11,VALID,0.0182292,
2007-08-09, 03:20:00,VALID,915.819,VALID,0,VALID,100,VALID,-0.0169808,VALID,18.8936,VALID,11,VALID,0.215843,
2007-08-09, 03:21:00,VALID,915.813,VALID,0,VALID,100,VALID,-0.0169808,VALID,18.8606,VALID,17,VALID,0.466751,
2007-08-09, 03:22:00,VALID,915.806,VALID,0,VALID,100,VALID,-0.0339617,VALID,18.8736,VALID,21,VALID,1.07917,
2007-08-09, 03:23:00,VALID,915.814,VALID,0,VALID,100,VALID,0,VALID,18.8868,VALID,25,VALID,1.24873,
2007-08-09, 03:24:00,VALID,915.85,VALID,0,VALID,100,VALID,0,VALID,18.8771,VALID,21,VALID,1.14222,
2007-08-09, 03:25:00,VALID,915.859,VALID,0,VALID,100,VALID,-0.0339617,VALID,18.9095,VALID,20,VALID,1.01523,
2007-08-09, 03:26:00,VALID,915.876,VALID,0,VALID,100,VALID,-0.0509425,VALID,18.9387,VALID,25,VALID,0.958079,
2007-08-09, 03:27:00,VALID,915.881,VALID,0,VALID,100,VALID,-0.0169808,VALID,18.9612,VALID,31,VALID,1.00509,
2007-08-09, 03:28:00,VALID,915.871,VALID,0,VALID,100,VALID,-0.0509425,VALID,18.9776,VALID,21,VALID,0.84157,
2007-08-09, 03:29:00,VALID,915.855,VALID,0,VALID,100,VALID,-0.0509425,VALID,18.9909,VALID,17,VALID,0.788881,
2007-08-09, 03:30:00,VALID,915.861,VALID,0,VALID,100,VALID,0.0849042,VALID,19.0056,VALID,8,VALID,0.987909,
2007-08-09, 03:31:00,VALID,915.859,VALID,0,VALID,100,VALID,0.101885,VALID,19.0119,VALID,24,VALID,1.03316,
2007-08-09, 03:32:00,VALID,915.856,VALID,0,VALID,100,VALID,0.0849042,VALID,19.0216,VALID,23,VALID,1.27934,
2007-08-09, 03:33:00,VALID,915.845,VALID,0,VALID,100,VALID,0.0849042,VALID,19.0351,VALID,22,VALID,1.53267,
2007-08-09, 03:34:00,VALID,915.841,VALID,0,VALID,100,VALID,0.0339617,VALID,19.0446,VALID,20,VALID,1.49531,
2007-08-09, 03:35:00,VALID,915.842,VALID,0,VALID,100,VALID,0.0339617,VALID,19.0578,VALID,17,VALID,1.50055,
2007-08-09, 03:36:00,VALID,915.861,VALID,0,VALID,100,VALID,0.0679233,VALID,19.0478,VALID,17,VALID,1.37054,
2007-08-09, 03:37:00,VALID,915.85,VALID,0,VALID,100,VALID,0.0509425,VALID,19.054,VALID,16,VALID,1.42107,
2007-08-09, 03:38:00,VALID,915.859,VALID,0,VALID,100,VALID,0.0849042,VALID,19.0473,VALID,21,VALID,1.79033,
2007-08-09, 03:39:00,VALID,915.843,VALID,0,VALID,100,VALID,0.101885,VALID,19.0374,VALID,23,VALID,1.76315,
2007-08-09, 03:40:00,VALID,915.843,VALID,0,VALID,100,VALID,0.101885,VALID,19.0151,VALID,18,VALID,1.75178,
2007-08-09, 03:41:00,VALID,915.856,VALID,0,VALID,100,VALID,0.0849042,VALID,19.0251,VALID,10,VALID,1.97443,
2007-08-09, 03:42:00,VALID,915.849,VALID,0,VALID,100,VALID,0.0679233,VALID,19.0086,VALID,16,VALID,1.82757,
2007-08-09, 03:43:00,VALID,915.843,VALID,0,VALID,100,VALID,0.0849042,VALID,19.0084,VALID,20,VALID,2.00486,